Notices

What's New in latest Release from April 7th, 2021:

- Updated Glossary, including Speed of Maximum Gust, and Total Hourly Precipitation

- Updated national and regional climate services offices contacts and prices information

- Addition of station inventory lists for 1981-2010, 1971-2000, and 1961-1990 Normals.

If you haven't already, please take our survey and provide feedback about our website: https://eccc.sondage-survey.ca/f/LanguageSelection.aspx?s=442ca660-fcf1-47c0-95a9-59707d6fd709

Hourly Data Report for December 22, 2004

SHERBROOKE A
QUEBEC

45°26'00.000" N
71°41'00.000" W
241.40 m
7028124
71610
YSC

Download Data

Hourly Data (December 2004)
Hourly Data Report for December 22, 2004
TIME
LST
Temp Definition
°C
Dew Point Definition
°C
Rel Hum Definition
%
Precip. Amount Definition
mm

Wind Dir Definition
10's deg

Wind Spd Definition
km/h
Visibility Definition
km
Stn Press Definition
kPa
Hmdx Definition


Wind Chill Definition


Weather Definition


00:00 -12.6 -16.1 75   12 4 15.0 98.90   -15 Snow
01:00 -11.7 -16.1 70   12 4 15.0 98.94   -14 Snow
02:00 -11.0 -13.5 82     0 15.0 99.04     Snow
03:00 -10.0 -12.6 81   12 4 15.0 99.07   -12 Snow
04:00 -8.9 -11.6 81   9 4 15.0 99.12   -11 Snow
05:00 -8.3 -10.6 83     0 15.0 99.11      
06:00 -8.5 -11.0 82   11 7 15.0 99.14   -12  
07:00 -9.3 -11.4 85   9 4 15.0 99.20   -12  
08:00 -10.0 -11.9 86   10 6 19.3 99.25   -14 Mostly Cloudy
09:00 -6.7 -9.4 81   8 4 19.3 99.32   -9 Mostly Cloudy
10:00 -4.1 -7.8 75     0 19.3 99.35     Mostly Cloudy
11:00 -1.2 -6.1 69   9 4 19.3 99.26   -3 Mostly Cloudy
12:00 0.0 -5.2 68     0 19.3 99.25     Cloudy
13:00 2.6 -2.5 69   18 11 19.3 99.16     Cloudy
14:00 2.8 -1.4 74   21 4 19.3 99.19     Cloudy
15:00 2.6 -0.9 78   19 9 16.1 99.29     Rain
16:00 2.7 0.6 86   20 11 16.1 99.30     Rain
17:00 1.8 0.6 92   18 6 16.1 99.33     Rain
18:00 1.5 0.5 93   17 6 9.7 99.34     Rain
19:00 0.8 0.0 94     0 3.4 99.36     Rain
20:00 0.8 0.2 96     0 6.4 99.37      
21:00 0.6 0.0 96     0 4.8 99.37      
22:00 0.8 0.2 96     0 9.7 99.42      
23:00 0.5 -0.1 96     0 3.9 99.40      

Notes on Data Quality.

Legend

  • E = Estimated
  • M = Missing
  • NA = Not Available*
  • [empty] = Indicates an unobserved value
Date modified: